Time,TemperatureF,DewpointF,PressureIn,WindDirection,WindDirectionDegrees,WindSpeedMPH,WindSpeedGustMPH,Humidity,HourlyPrecipIn,Conditions,Clouds,dailyrainin,SoftwareType,DateUTC
2013-08-03 00:59:00,64.0,53.8,29.77,WNW,293,1.8,1.8,69,0.00,,,0.00,WUHU21623XXSP,2013-08-03 05:59:00,
2013-08-03 01:59:00,60.8,52.6,29.79,WNW,293,1.1,1.1,74,0.00,,,0.00,WUHU21623XXSP,2013-08-03 06:59:00,
2013-08-03 02:59:00,56.8,51.4,29.80,WNW,293,0.0,0.0,82,0.00,,,0.00,WUHU21623XXSP,2013-08-03 07:59:00,
2013-08-03 03:59:00,55.9,50.5,29.81,West,270,0.0,0.0,82,0.00,,,0.00,WUHU21623XXSP,2013-08-03 08:59:00,
2013-08-03 04:59:00,53.6,48.9,29.81,West,270,0.0,0.0,84,0.00,,,0.00,WUHU21623XXSP,2013-08-03 09:59:00,
2013-08-03 05:59:00,52.0,47.9,29.83,WNW,293,0.0,0.0,86,0.00,,,0.00,WUHU21623XXSP,2013-08-03 10:59:00,
2013-08-03 06:59:00,54.0,50.5,29.84,WNW,293,0.0,0.0,88,0.00,,,0.00,WUHU21623XXSP,2013-08-03 11:59:00,
2013-08-03 07:59:00,66.6,57.8,29.85,WNW,293,0.0,0.0,73,0.00,,,0.00,WUHU21623XXSP,2013-08-03 12:59:00,
2013-08-03 08:59:00,72.5,55.0,29.86,WNW,293,5.4,5.4,54,0.00,,,0.00,WUHU21623XXSP,2013-08-03 13:59:00,
2013-08-03 09:59:00,75.7,56.4,29.87,NW,315,0.0,0.0,51,0.00,,,0.00,WUHU21623XXSP,2013-08-03 14:59:00,
2013-08-03 10:59:00,72.3,54.3,29.87,WNW,293,7.8,7.8,53,0.00,,,0.00,WUHU21623XXSP,2013-08-03 15:59:00,
2013-08-03 11:59:00,72.7,56.3,29.88,WSW,248,0.0,0.0,56,0.00,,,0.00,WUHU21623XXSP,2013-08-03 16:59:00,
2013-08-03 12:59:00,72.5,55.6,29.88,West,270,0.0,0.0,55,0.00,,,0.00,WUHU21623XXSP,2013-08-03 17:59:00,
2013-08-03 13:59:00,73.8,56.8,29.88,West,270,10.5,10.5,55,0.00,,,0.00,WUHU21623XXSP,2013-08-03 18:59:00,
2013-08-03 14:59:00,73.9,56.3,29.88,West,270,0.0,0.0,54,0.00,,,0.00,WUHU21623XXSP,2013-08-03 19:59:00,
2013-08-03 15:59:00,75.0,55.2,29.87,West,270,15.4,15.4,50,0.00,,,0.00,WUHU21623XXSP,2013-08-03 20:59:00,
2013-08-03 16:59:00,75.4,55.6,29.86,WNW,293,4.5,4.5,50,0.00,,,0.00,WUHU21623XXSP,2013-08-03 21:59:00,
2013-08-03 17:59:00,73.4,53.1,29.86,NW,315,5.1,5.1,49,0.00,,,0.00,WUHU21623XXSP,2013-08-03 22:59:00,
2013-08-03 18:59:00,72.5,54.0,29.87,WSW,248,5.6,5.6,52,0.00,,,0.00,WUHU21623XXSP,2013-08-03 23:59:00,
2013-08-03 19:59:00,68.9,52.7,29.87,West,270,0.0,0.0,56,0.00,,,0.00,WUHU21623XXSP,2013-08-04 00:59:00,
2013-08-03 20:59:00,62.1,53.1,29.89,NW,315,0.0,0.0,72,0.00,,,0.00,WUHU21623XXSP,2013-08-04 01:59:00,
2013-08-03 21:59:00,58.3,51.9,29.91,WNW,293,0.0,0.0,79,0.00,,,0.00,WUHU21623XXSP,2013-08-04 02:59:00,
2013-08-03 22:59:00,55.9,50.8,29.91,West,270,0.0,0.0,83,0.00,,,0.00,WUHU21623XXSP,2013-08-04 03:59:00,
2013-08-03 23:01:00,55.9,50.8,29.91,West,270,0.0,0.0,83,0.00,,,0.00,WUHU21623XXSP,2013-08-04 04:01:00,
2013-08-03 23:02:00,55.9,50.8,29.92,West,270,0.0,0.0,83,0.00,,,0.00,WUHU21623XXSP,2013-08-04 04:02:00,
2013-08-03 23:07:00,55.8,50.9,29.91,West,270,0.0,0.0,84,0.00,,,0.00,WUHU21623XXSP,2013-08-04 04:07:00,
2013-08-03 23:12:00,55.6,50.8,29.92,West,270,0.0,0.0,84,0.00,,,0.00,WUHU21623XXSP,2013-08-04 04:12:00,
2013-08-03 23:17:00,55.4,50.6,29.92,West,270,0.0,0.0,84,0.00,,,0.00,WUHU21623XXSP,2013-08-04 04:17:00,
2013-08-03 23:22:00,55.2,50.4,29.92,West,270,0.0,0.0,84,0.00,,,0.00,WUHU21623XXSP,2013-08-04 04:22:00,
2013-08-03 23:27:00,55.2,50.7,29.92,West,270,0.0,0.0,85,0.00,,,0.00,WUHU21623XXSP,2013-08-04 04:27:00,
2013-08-03 23:32:00,55.0,50.6,29.92,WNW,292,0.0,0.0,85,0.00,,,0.00,WUHU21623XXSP,2013-08-04 04:32:00,
2013-08-03 23:37:00,55.0,50.6,29.92,WNW,292,0.0,0.0,85,0.00,,,0.00,WUHU21623XXSP,2013-08-04 04:37:00,
2013-08-03 23:42:00,55.2,51.0,29.92,WNW,292,0.0,0.0,86,0.00,,,0.00,WUHU21623XXSP,2013-08-04 04:42:00,
2013-08-03 23:47:00,55.2,51.0,29.92,WNW,292,0.0,0.0,86,0.00,,,0.00,WUHU21623XXSP,2013-08-04 04:47:00,
2013-08-03 23:52:00,55.0,50.9,29.92,West,270,0.0,0.0,86,0.00,,,0.00,WUHU21623XXSP,2013-08-04 04:52:00,
2013-08-03 23:57:00,54.9,50.7,29.92,WNW,292,0.0,0.0,86,0.00,,,0.00,WUHU21623XXSP,2013-08-04 04:57:00,